Reflectivity
10 -12 -17 12 26 31 39 32 22 -3 -15 -4 -11 -5 -19 -20 -20 -20 -17 -13 -3 26 8 9 13 14 10 1 5 5 -20 -20 -20 -20 -6 -20 -20 -0 -20 -20 -20 -20 6
-5 -20 -4 7 21 41 31 28 1 19 10 -20 -15 1 -20 -20 -20 27 -15 -17 -0 -20 -17 -11 24 21 15 16 -17 -19 -20 -20 -20 -20 -20 -20 -20 -19 -20 -20 -20 -20 7
-3 -20 -20 7 22 34 32 33 26 4 1 -9 -18 21 8 5 1 -4 -20 -16 -4 -20 -15 5 -5 -4 5 -20 -20 -20 -20 -20 -20 -20 -20 -20 -2 -20 -20 -20 -4 -20 -4
-11 -19 -20 17 14 18 15 17 8 4 9 14 11 8 16 15 14 -0 -1 -20 -20 -4 -9 -14 -20 -17 -17 -20 -20 -20 -20 -20 -20 -20 -20 -20 1 -16 -17 -19 -20 -20 2
3 5 -8 16 13 9 15 15 13 11 3 4 18 17 -1 13 16 29 11 4 -17 -20 -17 -18 -20 -20 -20 -20 -20 -20 -20 -20 -20 -20 -20 7 9 1 0 -2 -11 -1 -20
-20 -19 -0 13 16 5 16 15 17 18 16 -1 3 15 16 15 15 14 9 6 5 -20 9 12 -19 13 -20 -20 -20 -20 -20 -20 -20 -20 -20 -20 -18 -20 -19 1 -20 -1 -15
-20 -15 -18 13 14 5 10 9 7 11 14 17 17 14 10 8 7 16 9 4 6 4 12 9 11 26 9 -12 -20 -20 -20 -20 -20 -20 -20 -20 -20 -4 -18 -20 -20 2 -0
-20 -2 -14 9 11 9 8 7 1 -10 -13 -17 -18 4 -14 -4 10 -9 -3 3 16 14 12 12 12 13 5 8 5 -20 -20 -20 -20 -20 -20 -20 -20 -20 -20 3 -11 -16 11
-20 -20 -19 -20 -16 11 -1 -5 3 -6 -4 8 10 2 2 -6 4 -2 -3 -20 -20 -20 -19 -20 -20 -10 9 -2 8 -20 -20 -20 -20 -20 -20 -20 -20 -20 -20 -20 -20 2 -12
-20 -20 -20 -20 -20 -20 -20 9 6 10 -16 10 9 12 -2 12 7 10 13 17 -6 -20 -20 -20 -20 -20 -20 -20 -20 -20 -20 -20 -20 -20 -20 -20 -20 -13 -2 -20 -20 -20 -20
-20 -20 -20 -20 -20 -20 -20 -20 -20 -13 8 10 6 -3 -15 -16 -13 -6 10 6 9 -13 -19 -19 -20 -20 -20 -20 -20 -20 -20 -20 -20 -20 -20 -20 -20 -20 -20 -3 -20 -20 -9
-20 -20 -20 -20 -20 -20 -20 -20 -20 -20 -20 -20 -20 -20 -20 -16 -4 -11 8 8 8 11 9 1 -6 -14 -20 -20 -20 -20 -20 -20 -20 -20 -20 -20 -20 -3 9 23 4 -20 -20
-20 -20 -20 -20 -20 -20 -20 -20 -20 -20 -20 -20 -20 -20 -20 -20 -19 -20 -20 5 -3 11 -11 7 1 -20 -20 -20 -20 -20 -20 -20 -20 -20 -20 -20 -20 -20 -16 29 22 -15 -20
-20 -20 -20 -20 -20 -20 -20 -20 -20 -20 -20 -20 -20 -20 -20 -20 -20 -20 -20 -20 -20 -20 -20 -13 7 -6 13 -19 10 -20 -20 -20 -20 -20 -20 -20 -20 -20 -20 -20 -7 28 6
-20 -20 -20 -20 -20 -20 -20 -20 -20 -20 -20 -20 -20 -20 -20 -20 -20 -20 -20 -20 -20 -20 -20 -20 -20 -20 -20 -19 -20 -20 -14 6 11 -16 -20 -20 -20 -20 -20 -20 -20 3 27
-20 -20 -20 -20 -20 -20 -20 -20 -20 -20 -20 -20 -20 -20 -20 -20 -20 -20 -20 -20 -20 -20 -20 -20 -20 -20 -20 -20 -20 -20 -17 -20 -20 -19 -13 -20 -20 -20 -20 -20 -10 -7 15
-20 -20 -20 -20 -20 -20 -20 -20 -20 -20 -20 -20 -20 -20 -20 -20 -20 -20 -20 -20 -20 -20 -20 -20 -20 -20 -20 -20 -20 -20 -20 -20 -20 -20 -20 -20 -2 14 8 -9 9 12 7
-20 -20 -20 -20 -20 -20 -20 -20 -20 -20 -20 -20 -20 -20 -20 -20 -20 -20 -20 -20 -20 -20 -20 -20 -20 -20 -20 -20 -20 -20 -20 -20 -20 -20 -20 -20 -20 -20 3 23 5 8 -15
-20 -20 -20 -20 -20 -20 -20 -20 -20 -20 -20 -20 -20 -20 -20 -20 -20 -20 -20 -20 -20 -20 -20 -20 -20 -20 -20 -20 -20 -20 -20 -20 -20 -20 -20 -20 -20 -20 -20 13 8 7 13
-20 -20 -20 -20 -20 -20 -20 -20 -20 -20 -20 -20 -20 -20 -20 -20 -20 -20 -20 -20 -20 -20 -20 -20 -20 -20 -20 -20 -20 -20 -20 -20 -20 -20 -20 -20 -20 -20 -20 -20 -16 -6 9
-20 -20 -20 -20 -20 -20 -20 -20 -20 -20 -20 -20 -20 -20 -20 -20 -20 -20 -20 -20 -20 -20 -20 -20 -20 -20 -20 -20 -20 -20 -20 -20 -20 -20 -20 -20 -20 -20 -20 -20 -20 -20 -0
-20 -20 -20 -20 -20 -20 -20 -20 -20 -20 -20 -20 -20 -20 -20 -20 -20 -20 -20 -20 -20 -20 -20 -20 -20 -20 -20 -20 -20 -20 -20 -20 -20 -20 -20 -20 -20 -20 -20 -20 -20 -20 -20
-20 -20 -20 -20 -20 -20 -20 -20 -20 -20 -20 -20 -20 -20 -20 -20 -20 -20 -20 -20 -20 -20 -20 -20 -20 -20 -20 -20 -20 -20 -20 -20 -20 -20 -20 -20 -20 -20 -20 -20 -20 -20 -20
-20 -20 -20 -20 -20 -20 -20 -20 -20 -20 -20 -20 -20 -20 -20 -20 -20 -20 -20 -20 -20 -20 -20 -20 -20 -20 -20 -20 -20 -20 -20 -20 -20 -20 -20 -20 -20 -20 -20 -20 -20 -20 -20
-20 -20 -20 -20 -20 -20 -20 -20 -20 -20 -20 -20 -20 -20 -20 -20 -20 -20 -20 -20 -20 -20 -20 -20 -20 -20 -20 -20 -20 -20 -20 -20 -20 -19 -20 -20 -20 -20 -20 -20 -20 -20 -20
-20 -20 -20 -20 -20 -20 -20 -20 -20 -20 -20 -20 -20 -20 -20 -20 -20 -20 -20 -20 -20 -20 -20 -20 -20 -20 -20 -20 -20 -20 -20 -20 -20 -20 -20 -20 -20 -20 -20 -20 -20 -20 -20
Wind_Speed
9 16 25 27 25 14 14 16 17 16 15 14 15 14 16 15 14 14 14 15 14 14 15 15 16 16 17 17 17 16 15 15 14 14 12 12 14 16 16 12 13 14 15
10 15 23 25 26 21 22 22 21 19 17 16 15 14 16 16 16 16 15 15 15 15 16 16 16 15 17 17 16 15 14 14 13 11 10 10 10 13 14 10 12 14 16
10 14 17 24 23 24 27 24 23 21 21 19 18 16 16 16 16 17 16 16 15 15 14 15 14 14 15 15 14 12 12 12 12 10 8 8 10 11 13 11 11 13 14
10 13 14 21 23 24 24 24 23 23 24 23 20 22 22 18 17 18 17 16 15 14 13 13 13 12 11 12 13 13 11 11 11 8 6 7 8 10 10 11 11 13 13
11 11 14 20 21 23 23 23 22 22 23 25 25 24 24 23 25 24 20 18 15 14 13 12 12 11 10 10 11 12 11 9 10 7 7 6 4 7 9 11 10 11 11
11 13 15 20 20 21 21 22 23 21 22 23 23 24 24 25 24 24 24 24 22 17 14 14 12 11 9 7 8 10 10 7 5 6 5 6 5 6 8 10 9 10 11
11 10 11 18 21 21 21 22 22 22 22 21 22 23 25 25 26 25 25 24 24 23 22 21 20 17 14 9 5 8 9 7 5 5 5 4 4 5 4 7 8 7 9
9 10 10 14 18 20 21 22 22 22 23 23 23 24 25 25 25 26 25 24 23 23 23 22 21 19 19 19 17 13 10 9 4 4 5 4 5 2 3 2 6 6 7
11 10 10 11 12 17 21 22 22 22 22 22 22 23 24 24 25 25 26 24 24 24 23 23 22 20 19 19 19 17 12 10 6 4 5 3 6 6 1 1 2 6 5
11 10 9 10 11 12 12 20 22 23 22 22 23 22 22 22 24 26 24 25 24 25 24 23 23 22 20 20 20 19 15 8 7 5 4 4 9 9 4 3 4 5 6
11 11 10 10 11 10 11 13 16 21 22 21 18 22 16 11 14 17 22 24 25 24 25 24 24 23 20 19 20 19 13 7 8 5 4 8 10 10 10 6 6 6 8
10 11 10 10 10 10 9 11 12 12 12 13 13 15 11 13 13 13 17 23 24 23 23 23 24 22 18 11 9 14 8 10 7 7 5 16 15 14 12 8 7 9 9
7 8 9 9 10 10 10 7 7 7 8 9 15 13 13 10 10 10 7 8 10 17 10 13 12 10 14 11 10 10 10 9 6 7 9 17 18 17 17 13 10 10 12
10 9 9 10 10 11 7 8 8 8 8 9 11 13 10 7 10 10 9 11 10 9 11 10 7 10 12 13 13 12 11 9 7 6 9 16 19 19 17 17 15 12 11
10 9 9 9 10 9 10 8 9 9 9 10 10 13 10 10 10 9 10 9 10 10 10 10 10 9 10 12 11 12 12 11 11 7 7 15 17 19 18 18 17 17 14
9 9 8 10 9 9 10 11 9 9 9 9 10 11 13 10 9 9 9 9 9 10 9 9 10 10 10 11 11 11 11 10 11 11 7 9 16 17 17 18 18 18 19
7 7 10 9 9 10 11 10 9 8 9 9 9 13 13 12 11 10 9 9 9 9 11 9 11 9 10 10 12 10 9 11 10 11 10 9 10 18 25 28 27 23 21
7 8 8 8 9 10 10 9 8 8 8 9 9 9 13 12 12 10 9 9 9 9 9 9 10 9 10 11 10 10 9 8 10 11 11 10 11 11 15 26 26 25 28
7 8 8 7 9 10 10 9 9 10 8 8 8 8 11 11 11 9 8 8 9 8 9 8 8 9 10 11 10 10 9 6 7 9 12 13 14 13 11 19 26 24 27
7 7 7 5 5 6 6 7 7 8 8 8 8 9 11 9 12 9 9 10 9 8 9 10 10 9 8 10 8 9 7 5 6 9 10 10 12 15 14 15 13 13 25
7 7 7 7 5 3 2 2 4 5 6 8 8 11 11 10 11 11 8 9 9 9 9 10 8 10 9 12 7 7 5 6 5 10 8 9 13 14 14 14 9 10 11
7 7 7 8 7 6 3 2 2 3 5 6 6 8 9 9 9 8 8 7 8 6 9 10 11 5 5 10 7 4 7 4 4 7 8 10 13 13 13 15 14 15 11
9 8 8 8 7 6 6 4 4 4 4 3 5 5 6 7 7 7 7 6 7 7 7 8 9 10 7 5 8 5 5 4 10 4 8 11 12 12 12 12 16 14 15
7 7 8 7 7 8 6 7 8 4 3 3 3 3 4 6 6 7 8 7 7 6 7 7 7 6 6 6 3 5 2 4 4 7 4 8 12 13 14 11 12 13 13
9 8 7 8 8 7 8 7 5 6 4 2 3 5 5 5 7 7 8 8 8 6 7 7 6 6 4 4 4 4 4 5 5 5 9 10 10 8 8 12 10 10 13
8 8 7 8 7 6 7 7 7 7 5 5 6 6 5 4 5 7 9 7 7 8 8 7 7 6 5 5 4 4 4 4 5 5 7 12 12 7 12 6 10 10 11
Wind_Direction
330 333 344 9 17 48 74 59 58 53 58 66 66 71 72 72 67 69 76 78 76 76 82 80 88 89 90 83 79 78 81 83 85 81 79 86 90 93 96 93 96 87 99
325 338 347 12 19 25 57 59 55 52 57 56 60 65 71 71 68 63 61 68 69 68 76 74 82 84 81 79 76 72 73 77 85 82 80 89 93 97 100 87 96 94 98
351 345 348 12 23 27 40 50 49 54 53 55 53 57 62 64 70 67 61 63 67 68 64 74 76 79 82 72 62 63 70 72 72 71 76 95 102 105 106 97 99 100 99
6 353 350 15 26 32 37 42 49 50 48 50 59 61 58 58 61 63 62 59 61 61 68 71 75 78 77 67 69 68 66 58 53 56 85 93 108 113 114 105 107 107 102
20 4 2 18 30 38 38 42 49 51 51 51 49 54 54 53 52 55 57 53 52 58 60 65 71 70 72 66 60 67 70 65 54 50 55 68 93 124 122 107 110 106 109
30 20 5 23 36 39 41 45 47 52 56 57 53 54 55 55 55 51 51 46 45 46 52 53 53 59 67 69 69 60 54 69 68 66 57 39 34 98 110 110 120 118 128
37 31 19 29 32 42 41 45 48 51 55 60 60 57 56 53 52 51 49 45 42 42 43 43 41 38 37 47 74 57 47 49 62 51 45 51 37 50 109 134 134 133 141
44 39 39 32 35 45 45 45 48 50 51 54 57 57 56 54 52 51 49 47 43 42 40 39 37 39 39 41 41 35 35 31 46 42 36 15 348 20 65 134 156 158 158
48 43 34 41 42 39 50 49 51 51 52 54 56 57 58 54 53 50 48 45 43 39 39 35 34 34 35 37 32 24 23 35 33 12 359 1 344 313 140 296 234 185 184
52 44 37 46 42 52 46 49 53 52 50 48 51 50 53 51 49 47 46 43 42 40 38 35 31 31 31 28 26 19 14 27 18 18 358 353 322 304 264 220 255 209 202
53 44 39 42 43 52 59 52 49 51 50 46 42 44 40 40 42 40 42 41 40 38 33 34 31 26 24 23 19 16 12 9 3 356 352 346 333 314 297 234 231 246 219
49 43 42 46 44 52 57 52 52 49 49 46 43 45 49 45 43 46 38 37 33 32 30 26 27 24 23 17 11 12 9 358 360 352 349 346 333 315 309 294 247 240 248
74 61 44 51 56 61 58 54 52 50 48 45 44 43 46 46 40 39 36 28 23 24 22 19 19 21 16 14 11 6 360 2 357 343 342 345 339 331 325 311 290 258 246
83 69 55 49 58 57 65 60 60 57 53 50 46 42 45 43 42 42 39 33 32 23 22 21 16 13 12 10 6 1 359 357 350 340 335 340 337 334 331 323 313 283 259
89 80 68 66 66 64 69 69 65 59 55 54 50 46 46 48 46 42 39 36 33 26 23 21 15 11 11 5 2 357 351 350 343 344 332 332 337 335 334 330 320 312 274
99 85 77 70 69 75 73 70 69 65 61 57 52 46 46 49 49 47 45 39 34 26 24 23 16 10 9 0 355 353 344 347 344 344 330 334 336 340 342 341 334 325 316
98 99 89 81 74 77 78 75 71 64 64 61 56 49 48 47 48 48 45 40 31 25 26 25 20 17 11 0 353 347 344 348 349 352 359 355 356 8 18 21 10 359 344
109 95 80 86 82 80 81 79 74 67 66 62 57 52 49 47 47 48 44 37 25 28 26 24 18 15 11 0 347 341 339 349 357 16 13 13 10 16 11 15 15 11 15
108 107 99 97 92 90 86 83 77 72 67 64 62 57 53 51 48 52 47 37 30 33 31 21 24 19 12 357 341 332 337 352 17 12 17 26 13 16 7 9 8 14 9
108 102 101 102 111 108 96 90 80 70 61 55 52 48 45 45 44 47 46 40 33 32 27 21 22 27 18 353 330 324 325 352 45 15 19 17 14 12 4 9 355 3 4
108 101 87 89 70 124 100 100 81 77 65 56 51 44 42 40 41 39 39 35 31 34 29 23 10 15 18 0 342 343 324 344 46 7 17 14 11 8 2 0 356 358 346
128 112 96 83 71 69 87 93 93 113 85 72 58 49 41 42 41 48 42 40 36 32 31 29 26 10 21 20 2 319 351 341 335 6 6 9 12 356 360 358 2 349 348
147 139 119 103 85 67 66 106 103 103 111 60 48 49 42 41 44 43 40 40 36 34 28 24 22 28 6 18 26 3 339 342 328 344 357 357 2 354 353 349 348 348 348
139 118 106 95 84 68 65 77 81 81 98 56 40 37 41 37 42 39 34 28 31 28 26 15 19 18 4 7 358 21 344 287 328 315 314 337 349 341 342 346 340 343 344
140 130 114 99 84 72 69 72 78 78 78 61 38 27 28 23 26 28 25 24 20 14 10 6 3 2 359 335 343 335 320 293 266 273 309 323 326 340 333 331 330 334 338
137 128 119 106 88 76 73 66 65 59 42 25 13 9 4 1 5 13 9 13 10 359 353 348 341 334 327 314 303 298 295 306 312 301 303 318 318 326 325 317 324 332 334